owner,sensor,date,latitude,longitude,vertical_datum,direction_of_sea_water_velocity,sea_water_speed,upward_sea_water_velocity,qcFlag 
TABS,ioos:station:wmo:42049:1,2014-03-01T00:00:00Z,28.3507,-96.0058,2.0,243.5168301,49.85095084,-99999.0,'11111222,11111222,99999999' 
TABS,ioos:station:wmo:42049:1,2014-03-01T00:30:00Z,28.3507,-96.0058,2.0,244.8865361,46.7711984,-99999.0,'11111222,11111222,99999999' 
TABS,ioos:station:wmo:42049:1,2014-03-01T01:00:00Z,28.3507,-96.0058,2.0,248.1247264,46.32545413,-99999.0,'11111222,11111222,99999999' 
TABS,ioos:station:wmo:42049:1,2014-03-01T01:30:00Z,28.3507,-96.0058,2.0,246.1926256,43.40316233,-99999.0,'11111222,11111222,99999999' 
TABS,ioos:station:wmo:42049:1,2014-03-01T02:00:00Z,28.3507,-96.0058,2.0,246.8273808,42.84660663,-99999.0,'11111222,11111222,99999999' 
TABS,ioos:station:wmo:42049:1,2014-03-01T02:30:00Z,28.3507,-96.0058,2.0,254.9809103,39.32323105,-99999.0,'11111222,11111222,99999999' 
TABS,ioos:station:wmo:42049:1,2014-03-01T03:00:00Z,28.3507,-96.0058,2.0,244.812743,40.72163307,-99999.0,'11111222,11111222,99999999' 
TABS,ioos:station:wmo:42049:1,2014-03-01T03:30:00Z,28.3507,-96.0058,2.0,245.8937049,40.96223871,-99999.0,'11111222,11111222,99999999' 
TABS,ioos:station:wmo:42049:1,2014-03-01T04:00:00Z,28.3507,-96.0058,2.0,246.9751694,38.45326644,-99999.0,'11111222,11111222,99999999' 
TABS,ioos:station:wmo:42049:1,2014-03-01T04:30:00Z,28.3507,-96.0058,2.0,246.1163179,35.27011341,-99999.0,'11111222,11111222,99999999' 
TABS,ioos:station:wmo:42049:1,2014-03-01T05:00:00Z,28.3507,-96.0058,2.0,242.9576634,36.5341443,-99999.0,'11111222,11111222,99999999' 
TABS,ioos:station:wmo:42049:1,2014-03-01T05:30:00Z,28.3507,-96.0058,2.0,248.4066607,33.17840563,-99999.0,'11111222,11111222,99999999' 
TABS,ioos:station:wmo:42049:1,2014-03-01T06:00:00Z,28.3507,-96.0058,2.0,250.9489633,33.54737844,-99999.0,'11111222,11111222,99999999' 
TABS,ioos:station:wmo:42049:1,2014-03-01T06:30:00Z,28.3507,-96.0058,2.0,245.2837927,31.04384641,-99999.0,'11111222,11111222,99999999' 
TABS,ioos:station:wmo:42049:1,2014-03-01T07:00:00Z,28.3507,-96.0058,2.0,243.0148492,30.52314695,-99999.0,'11111222,11111222,99999999' 
TABS,ioos:station:wmo:42049:1,2014-03-01T07:30:00Z,28.3507,-96.0058,2.0,236.6291274,30.83348991,-99999.0,'11111222,11111222,99999999' 
TABS,ioos:station:wmo:42049:1,2014-03-01T08:00:00Z,28.3507,-96.0058,2.0,232.9804457,33.76611467,-99999.0,'11111222,11111222,99999999' 
TABS,ioos:station:wmo:42049:1,2014-03-01T08:30:00Z,28.3507,-96.0058,2.0,226.5654339,32.34807104,-99999.0,'11111222,11111222,99999999' 
TABS,ioos:station:wmo:42049:1,2014-03-01T09:00:00Z,28.3507,-96.0058,2.0,217.5004707,37.60027925,-99999.0,'11111222,11111222,99999999' 
TABS,ioos:station:wmo:42049:1,2014-03-01T09:30:00Z,28.3507,-96.0058,2.0,218.1201678,41.14580051,-99999.0,'11111222,11111222,99999999' 
TABS,ioos:station:wmo:42049:1,2014-03-01T10:00:00Z,28.3507,-96.0058,2.0,214.197486,47.57573016,-99999.0,'11111222,11111222,99999999' 
TABS,ioos:station:wmo:42049:1,2014-03-01T10:30:00Z,28.3507,-96.0058,2.0,209.2647801,50.50623427,-99999.0,'11111222,11111222,99999999' 
TABS,ioos:station:wmo:42049:1,2014-03-01T11:00:00Z,28.3507,-96.0058,2.0,212.8915468,52.75710853,-99999.0,'11111222,11111222,99999999' 
TABS,ioos:station:wmo:42049:1,2014-03-01T11:30:00Z,28.3507,-96.0058,2.0,218.5145281,65.42296004,-99999.0,'11111222,11111222,99999999' 
TABS,ioos:station:wmo:42049:1,2014-03-01T12:00:00Z,28.3507,-96.0058,2.0,221.6779081,70.29137643,-99999.0,'11111222,11111222,99999999' 
TABS,ioos:station:wmo:42049:1,2014-03-01T12:30:00Z,28.3507,-96.0058,2.0,224.8666406,70.0391155,-99999.0,'11111222,11111222,99999999' 
TABS,ioos:station:wmo:42049:1,2014-03-01T13:00:00Z,28.3507,-96.0058,2.0,226.9939641,70.71108117,-99999.0,'11111222,11111222,99999999' 
TABS,ioos:station:wmo:42049:1,2014-03-01T13:30:00Z,28.3507,-96.0058,2.0,222.9962174,72.40957119,-99999.0,'11111222,11111222,99999999' 
TABS,ioos:station:wmo:42049:1,2014-03-01T14:00:00Z,28.3507,-96.0058,2.0,226.0863412,71.96105683,-99999.0,'11111222,11111222,99999999' 
TABS,ioos:station:wmo:42049:1,2014-03-01T14:30:00Z,28.3507,-96.0058,2.0,227.1859716,75.43956853,-99999.0,'11111222,11111222,99999999' 
TABS,ioos:station:wmo:42049:1,2014-03-01T15:00:00Z,28.3507,-96.0058,2.0,229.229283,77.17876975,-99999.0,'11111222,11111222,99999999' 
TABS,ioos:station:wmo:42049:1,2014-03-01T15:30:00Z,28.3507,-96.0058,2.0,229.1798884,79.6411734,-99999.0,'11111222,11111222,99999999' 
TABS,ioos:station:wmo:42049:1,2014-03-01T16:00:00Z,28.3507,-96.0058,2.0,231.5469557,79.50233456,-99999.0,'11111222,11111222,99999999' 
TABS,ioos:station:wmo:42049:1,2014-03-01T16:30:00Z,28.3507,-96.0058,2.0,234.7312509,79.64911173,-99999.0,'11111222,11111222,99999999' 
TABS,ioos:station:wmo:42049:1,2014-03-01T17:00:00Z,28.3507,-96.0058,2.0,238.9716802,73.44946018,-99999.0,'11111222,11111222,99999999' 
TABS,ioos:station:wmo:42049:1,2014-03-01T17:30:00Z,28.3507,-96.0058,2.0,236.5936517,72.72486301,-99999.0,'11111222,11111222,99999999' 
TABS,ioos:station:wmo:42049:1,2014-03-01T18:00:00Z,28.3507,-96.0058,2.0,240.4598236,63.76914614,-99999.0,'11111222,11111222,99999999' 
TABS,ioos:station:wmo:42049:1,2014-03-01T18:30:00Z,28.3507,-96.0058,2.0,252.4036508,56.36731766,-99999.0,'11111222,11111222,99999999' 
TABS,ioos:station:wmo:42049:1,2014-03-01T19:00:00Z,28.3507,-96.0058,2.0,253.4122793,49.53120733,-99999.0,'11111222,11111222,99999999' 
TABS,ioos:station:wmo:42049:1,2014-03-01T19:30:00Z,28.3507,-96.0058,2.0,257.2686315,38.11708803,-99999.0,'11111222,11111222,99999999' 
TABS,ioos:station:wmo:42049:1,2014-03-01T20:00:00Z,28.3507,-96.0058,2.0,272.0823178,47.07107073,-99999.0,'11111222,11111222,99999999' 
TABS,ioos:station:wmo:42049:1,2014-03-01T20:30:00Z,28.3507,-96.0058,2.0,276.605381,42.77389975,-99999.0,'11111222,11111222,99999999' 
TABS,ioos:station:wmo:42049:1,2014-03-01T21:00:00Z,28.3507,-96.0058,2.0,280.0285384,44.44907761,-99999.0,'11111222,11111222,99999999' 
TABS,ioos:station:wmo:42049:1,2014-03-01T21:30:00Z,28.3507,-96.0058,2.0,281.0050152,43.42857354,-99999.0,'11111222,11111222,99999999' 
TABS,ioos:station:wmo:42049:1,2014-03-01T22:00:00Z,28.3507,-96.0058,2.0,282.5157053,46.05433747,-99999.0,'11111222,11111222,99999999' 
TABS,ioos:station:wmo:42049:1,2014-03-01T22:30:00Z,28.3507,-96.0058,2.0,282.1651054,42.33049492,-99999.0,'11111222,11111222,99999999' 
TABS,ioos:station:wmo:42049:1,2014-03-01T23:00:00Z,28.3507,-96.0058,2.0,287.6139703,42.79633863,-99999.0,'11111222,11111222,99999999' 
TABS,ioos:station:wmo:42049:1,2014-03-01T23:30:00Z,28.3507,-96.0058,2.0,286.3763729,42.9524877,-99999.0,'11111222,11111222,99999999' 
TABS,ioos:station:wmo:42049:1,2014-03-02T00:00:00Z,28.3507,-96.0058,2.0,288.8731527,41.79704415,-99999.0,'11111222,11111222,99999999' 
TABS,ioos:station:wmo:42049:1,2014-03-02T00:30:00Z,28.3507,-96.0058,2.0,289.0044405,40.75112023,-99999.0,'11111222,11111222,99999999' 
TABS,ioos:station:wmo:42049:1,2014-03-02T01:00:00Z,28.3507,-96.0058,2.0,291.670172,43.65523222,-99999.0,'11111222,11111222,99999999' 
TABS,ioos:station:wmo:42049:1,2014-03-02T01:30:00Z,28.3507,-96.0058,2.0,296.6184124,48.34381036,-99999.0,'11111222,11111222,99999999' 
TABS,ioos:station:wmo:42049:1,2014-03-02T02:00:00Z,28.3507,-96.0058,2.0,295.6594044,45.81828892,-99999.0,'11111222,11111222,99999999' 
TABS,ioos:station:wmo:42049:1,2014-03-02T02:30:00Z,28.3507,-96.0058,2.0,295.1079878,42.72719275,-99999.0,'11111222,11111222,99999999' 
TABS,ioos:station:wmo:42049:1,2014-03-02T03:00:00Z,28.3507,-96.0058,2.0,292.1955226,41.61345095,-99999.0,'11111222,11111222,99999999' 
TABS,ioos:station:wmo:42049:1,2014-03-02T03:30:00Z,28.3507,-96.0058,2.0,292.9068866,39.66818877,-99999.0,'11111222,11111222,99999999' 
TABS,ioos:station:wmo:42049:1,2014-03-02T04:00:00Z,28.3507,-96.0058,2.0,292.5426421,38.0577272,-99999.0,'11111222,11111222,99999999' 
TABS,ioos:station:wmo:42049:1,2014-03-02T04:30:00Z,28.3507,-96.0058,2.0,291.6990236,40.38137318,-99999.0,'11111222,11111222,99999999' 
TABS,ioos:station:wmo:42049:1,2014-03-02T05:00:00Z,28.3507,-96.0058,2.0,294.1319336,36.12718921,-99999.0,'11111222,11111222,99999999' 
TABS,ioos:station:wmo:42049:1,2014-03-02T05:30:00Z,28.3507,-96.0058,2.0,299.2786505,37.31708724,-99999.0,'11111222,11111222,99999999' 
TABS,ioos:station:wmo:42049:1,2014-03-02T06:00:00Z,28.3507,-96.0058,2.0,295.0535177,36.27270599,-99999.0,'11111222,11111222,99999999' 
TABS,ioos:station:wmo:42049:1,2014-03-02T06:30:00Z,28.3507,-96.0058,2.0,300.4410423,31.56048479,-99999.0,'11111222,11111222,99999999' 
TABS,ioos:station:wmo:42049:1,2014-03-02T07:00:00Z,28.3507,-96.0058,2.0,294.753743,34.94037493,-99999.0,'11111222,11111222,99999999' 
TABS,ioos:station:wmo:42049:1,2014-03-02T07:30:00Z,28.3507,-96.0058,2.0,294.6993651,27.33030003,-99999.0,'11111222,11111222,99999999' 
TABS,ioos:station:wmo:42049:1,2014-03-02T08:00:00Z,28.3507,-96.0058,2.0,292.5850695,27.57462058,-99999.0,'11111222,11111222,99999999' 
TABS,ioos:station:wmo:42049:1,2014-03-02T08:30:00Z,28.3507,-96.0058,2.0,294.2670044,28.88192861,-99999.0,'11111222,11111222,99999999' 
TABS,ioos:station:wmo:42049:1,2014-03-02T09:00:00Z,28.3507,-96.0058,2.0,278.0855615,25.24089143,-99999.0,'11111222,11111222,99999999' 
TABS,ioos:station:wmo:42049:1,2014-03-02T09:30:00Z,28.3507,-96.0058,2.0,274.1518871,24.17342756,-99999.0,'11111222,11111222,99999999' 
TABS,ioos:station:wmo:42049:1,2014-03-02T10:00:00Z,28.3507,-96.0058,2.0,281.2815303,23.41234717,-99999.0,'11111222,11111222,99999999' 
TABS,ioos:station:wmo:42049:1,2014-03-02T10:30:00Z,28.3507,-96.0058,2.0,264.1327043,25.53374434,-99999.0,'11111222,11111222,99999999' 
TABS,ioos:station:wmo:42049:1,2014-03-02T11:00:00Z,28.3507,-96.0058,2.0,264.239329,28.69489327,-99999.0,'11111222,11111222,99999999' 
TABS,ioos:station:wmo:42049:1,2014-03-02T11:30:00Z,28.3507,-96.0058,2.0,258.6896731,30.64510728,-99999.0,'11111222,11111222,99999999' 
TABS,ioos:station:wmo:42049:1,2014-03-02T12:00:00Z,28.3507,-96.0058,2.0,255.2809565,37.46956098,-99999.0,'11111222,11111222,99999999' 
TABS,ioos:station:wmo:42049:1,2014-03-02T12:30:00Z,28.3507,-96.0058,2.0,254.7738233,35.98306407,-99999.0,'11111222,11111222,99999999' 
TABS,ioos:station:wmo:42049:1,2014-03-02T13:00:00Z,28.3507,-96.0058,2.0,243.3053405,33.70210231,-99999.0,'11111222,11111222,99999999' 
TABS,ioos:station:wmo:42049:1,2014-03-02T13:30:00Z,28.3507,-96.0058,2.0,246.7094075,32.0191146,-99999.0,'11111222,11111222,99999999' 
TABS,ioos:station:wmo:42049:1,2014-03-02T14:00:00Z,28.3507,-96.0058,2.0,252.7218023,36.32932975,-99999.0,'11111222,11111222,99999999' 
TABS,ioos:station:wmo:42049:1,2014-03-02T14:30:00Z,28.3507,-96.0058,2.0,249.780082,37.26654398,-99999.0,'11111222,11111222,99999999' 
TABS,ioos:station:wmo:42049:1,2014-03-02T15:00:00Z,28.3507,-96.0058,2.0,251.9586168,37.71421483,-99999.0,'11111222,11111222,99999999' 
TABS,ioos:station:wmo:42049:1,2014-03-02T15:30:00Z,28.3507,-96.0058,2.0,246.2455849,36.84106405,-99999.0,'11111222,11111222,99999999' 
TABS,ioos:station:wmo:42049:1,2014-03-02T16:00:00Z,28.3507,-96.0058,2.0,252.2429493,38.19982853,-99999.0,'11111222,11111222,99999999' 
TABS,ioos:station:wmo:42049:1,2014-03-02T16:30:00Z,28.3507,-96.0058,2.0,251.7347457,38.35227242,-99999.0,'11111222,11111222,99999999' 
TABS,ioos:station:wmo:42049:1,2014-03-02T17:00:00Z,28.3507,-96.0058,2.0,258.3746223,38.16281567,-99999.0,'11111222,11111222,99999999' 
TABS,ioos:station:wmo:42049:1,2014-03-02T17:30:00Z,28.3507,-96.0058,2.0,260.7331608,35.58436876,-99999.0,'11111222,11111222,99999999' 
TABS,ioos:station:wmo:42049:1,2014-03-02T18:00:00Z,28.3507,-96.0058,2.0,259.1260841,37.84955086,-99999.0,'11111222,11111222,99999999' 
TABS,ioos:station:wmo:42049:1,2014-03-02T18:30:00Z,28.3507,-96.0058,2.0,265.5897039,35.37472685,-99999.0,'11111222,11111222,99999999' 
TABS,ioos:station:wmo:42049:1,2014-03-02T19:00:00Z,28.3507,-96.0058,2.0,261.1757378,36.441298,-99999.0,'11111222,11111222,99999999' 
TABS,ioos:station:wmo:42049:1,2014-03-02T19:30:00Z,28.3507,-96.0058,2.0,256.5353934,39.59833961,-99999.0,'11111222,11111222,99999999' 
TABS,ioos:station:wmo:42049:1,2014-03-02T20:00:00Z,28.3507,-96.0058,2.0,255.0042757,38.10768558,-99999.0,'11111222,11111222,99999999' 
TABS,ioos:station:wmo:42049:1,2014-03-02T20:30:00Z,28.3507,-96.0058,2.0,252.8470235,38.85831314,-99999.0,'11111222,11111222,99999999' 
TABS,ioos:station:wmo:42049:1,2014-03-02T21:00:00Z,28.3507,-96.0058,2.0,256.1565146,40.29024696,-99999.0,'11111222,11111222,99999999' 
TABS,ioos:station:wmo:42049:1,2014-03-02T21:30:00Z,28.3507,-96.0058,2.0,249.4371157,41.48289406,-99999.0,'11111222,11111222,99999999' 
TABS,ioos:station:wmo:42049:1,2014-03-02T22:00:00Z,28.3507,-96.0058,2.0,251.6394202,41.20767526,-99999.0,'11111222,11111222,99999999' 
TABS,ioos:station:wmo:42049:1,2014-03-02T22:30:00Z,28.3507,-96.0058,2.0,250.2763828,42.19544999,-99999.0,'11111222,11111222,99999999' 
TABS,ioos:station:wmo:42049:1,2014-03-02T23:00:00Z,28.3507,-96.0058,2.0,251.133712,46.66705155,-99999.0,'11111222,11111222,99999999' 
TABS,ioos:station:wmo:42049:1,2014-03-02T23:30:00Z,28.3507,-96.0058,2.0,252.3808389,47.50855502,-99999.0,'11111222,11111222,99999999' 
TABS,ioos:station:wmo:42049:1,2014-03-03T00:00:00Z,28.3507,-96.0058,2.0,252.1093799,47.23391366,-99999.0,'11111222,11111222,99999999' 
TABS,ioos:station:wmo:42049:1,2014-03-03T00:30:00Z,28.3507,-96.0058,2.0,258.8449454,49.20964133,-99999.0,'11111222,11111222,99999999' 
TABS,ioos:station:wmo:42049:1,2014-03-03T01:00:00Z,28.3507,-96.0058,2.0,250.7220443,49.88716268,-99999.0,'11111222,11111222,99999999' 
TABS,ioos:station:wmo:42049:1,2014-03-03T01:30:00Z,28.3507,-96.0058,2.0,220.9007348,49.75910469,-99999.0,'11111222,11111222,99999999' 
TABS,ioos:station:wmo:42049:1,2014-03-03T02:00:00Z,28.3507,-96.0058,2.0,215.8002767,52.19108928,-99999.0,'11111222,11111222,99999999' 
TABS,ioos:station:wmo:42049:1,2014-03-03T02:30:00Z,28.3507,-96.0058,2.0,215.7575498,61.1095099,-99999.0,'11111222,11111222,99999999' 
TABS,ioos:station:wmo:42049:1,2014-03-03T03:00:00Z,28.3507,-96.0058,2.0,215.6332614,63.21671693,-99999.0,'11111222,11111222,99999999' 
TABS,ioos:station:wmo:42049:1,2014-03-03T03:30:00Z,28.3507,-96.0058,2.0,217.8715067,63.25167033,-99999.0,'11111222,11111222,99999999' 
TABS,ioos:station:wmo:42049:1,2014-03-03T04:00:00Z,28.3507,-96.0058,2.0,227.9250465,60.40907217,-99999.0,'11111222,11111222,99999999' 
TABS,ioos:station:wmo:42049:1,2014-03-03T04:30:00Z,28.3507,-96.0058,2.0,223.5913707,63.87103569,-99999.0,'11111222,11111222,99999999' 
TABS,ioos:station:wmo:42049:1,2014-03-03T05:00:00Z,28.3507,-96.0058,2.0,222.725511,65.04141219,-99999.0,'11111222,11111222,99999999' 
TABS,ioos:station:wmo:42049:1,2014-03-03T05:30:00Z,28.3507,-96.0058,2.0,224.1693708,65.87391365,-99999.0,'11111222,11111222,99999999' 
TABS,ioos:station:wmo:42049:1,2014-03-03T06:00:00Z,28.3507,-96.0058,2.0,222.7398084,60.07301641,-99999.0,'11111222,11111222,99999999' 
TABS,ioos:station:wmo:42049:1,2014-03-03T06:30:00Z,28.3507,-96.0058,2.0,222.3275139,60.51636225,-99999.0,'11111222,11111222,99999999' 
TABS,ioos:station:wmo:42049:1,2014-03-03T07:00:00Z,28.3507,-96.0058,2.0,225.6452626,54.5991804,-99999.0,'11111222,11111222,99999999' 
TABS,ioos:station:wmo:42049:1,2014-03-03T07:30:00Z,28.3507,-96.0058,2.0,237.3041358,46.81820266,-99999.0,'11111222,11111222,99999999' 
TABS,ioos:station:wmo:42049:1,2014-03-03T08:00:00Z,28.3507,-96.0058,2.0,237.4195268,46.3899612,-99999.0,'11111222,11111222,99999999' 
TABS,ioos:station:wmo:42049:1,2014-03-03T08:30:00Z,28.3507,-96.0058,2.0,240.3756623,41.1486148,-99999.0,'11111222,11111222,99999999' 
TABS,ioos:station:wmo:42049:1,2014-03-03T09:00:00Z,28.3507,-96.0058,2.0,234.9799704,44.10499405,-99999.0,'11111222,11111222,99999999' 
TABS,ioos:station:wmo:42049:1,2014-03-03T09:30:00Z,28.3507,-96.0058,2.0,237.5978559,37.99547341,-99999.0,'11111222,11111222,99999999' 
TABS,ioos:station:wmo:42049:1,2014-03-03T10:00:00Z,28.3507,-96.0058,2.0,231.3456054,31.15510392,-99999.0,'11111222,11111222,99999999' 
TABS,ioos:station:wmo:42049:1,2014-03-03T10:30:00Z,28.3507,-96.0058,2.0,230.1008195,42.46732862,-99999.0,'11111222,11111222,99999999' 
TABS,ioos:station:wmo:42049:1,2014-03-03T11:00:00Z,28.3507,-96.0058,2.0,230.228515,40.50191354,-99999.0,'11111222,11111222,99999999' 
TABS,ioos:station:wmo:42049:1,2014-03-03T11:30:00Z,28.3507,-96.0058,2.0,223.2288478,39.81498462,-99999.0,'11111222,11111222,99999999' 
TABS,ioos:station:wmo:42049:1,2014-03-03T12:00:00Z,28.3507,-96.0058,2.0,219.8838327,37.34967336,-99999.0,'11111222,11111222,99999999' 
TABS,ioos:station:wmo:42049:1,2014-03-03T12:30:00Z,28.3507,-96.0058,2.0,227.9176534,34.58701057,-99999.0,'11111222,11111222,99999999' 
TABS,ioos:station:wmo:42049:1,2014-03-03T13:00:00Z,28.3507,-96.0058,2.0,232.6236027,24.67696294,-99999.0,'11111222,11111222,99999999' 
TABS,ioos:station:wmo:42049:1,2014-03-03T13:30:00Z,28.3507,-96.0058,2.0,231.9608903,45.0993847,-99999.0,'11111222,11111222,99999999' 
TABS,ioos:station:wmo:42049:1,2014-03-03T14:00:00Z,28.3507,-96.0058,2.0,229.0486998,44.96401339,-99999.0,'11111222,11111222,99999999' 
TABS,ioos:station:wmo:42049:1,2014-03-03T14:30:00Z,28.3507,-96.0058,2.0,232.4858898,86.67347287,-99999.0,'11111222,11111222,99999999' 
TABS,ioos:station:wmo:42049:1,2014-03-03T15:00:00Z,28.3507,-96.0058,2.0,240.8143633,85.59673183,-99999.0,'11111222,11111222,99999999' 
TABS,ioos:station:wmo:42049:1,2014-03-03T15:30:00Z,28.3507,-96.0058,2.0,237.9699231,84.81043804,-99999.0,'11111222,11111222,99999999' 
TABS,ioos:station:wmo:42049:1,2014-03-03T16:00:00Z,28.3507,-96.0058,2.0,240.0449713,70.79702042,-99999.0,'11111222,11111222,99999999' 
TABS,ioos:station:wmo:42049:1,2014-03-03T16:30:00Z,28.3507,-96.0058,2.0,235.78595,85.57994683,-99999.0,'11111222,11111222,99999999' 
TABS,ioos:station:wmo:42049:1,2014-03-03T17:00:00Z,28.3507,-96.0058,2.0,241.5891087,73.87775646,-99999.0,'11111222,11111222,99999999' 
TABS,ioos:station:wmo:42049:1,2014-03-03T17:30:00Z,28.3507,-96.0058,2.0,241.518633,63.93809584,-99999.0,'11111222,11111222,99999999' 
TABS,ioos:station:wmo:42049:1,2014-03-03T18:00:00Z,28.3507,-96.0058,2.0,243.7932497,65.01271414,-99999.0,'11111222,11111222,99999999' 
TABS,ioos:station:wmo:42049:1,2014-03-03T18:30:00Z,28.3507,-96.0058,2.0,248.939172,59.16191089,-99999.0,'11111222,11111222,99999999' 
TABS,ioos:station:wmo:42049:1,2014-03-03T19:00:00Z,28.3507,-96.0058,2.0,242.902954,62.657322,-99999.0,'11111222,11111222,99999999' 
TABS,ioos:station:wmo:42049:1,2014-03-03T19:30:00Z,28.3507,-96.0058,2.0,265.4339543,52.38623197,-99999.0,'11111222,11111222,99999999' 
TABS,ioos:station:wmo:42049:1,2014-03-03T20:00:00Z,28.3507,-96.0058,2.0,237.5526526,78.11462411,-99999.0,'11111222,11111222,99999999' 
TABS,ioos:station:wmo:42049:1,2014-03-03T20:30:00Z,28.3507,-96.0058,2.0,241.3423551,67.37292112,-99999.0,'11111222,11111222,99999999' 
TABS,ioos:station:wmo:42049:1,2014-03-03T21:00:00Z,28.3507,-96.0058,2.0,241.9581061,55.5400081,-99999.0,'11111222,11111222,99999999' 
TABS,ioos:station:wmo:42049:1,2014-03-03T21:30:00Z,28.3507,-96.0058,2.0,247.3878879,48.84461588,-99999.0,'11111222,11111222,99999999' 
TABS,ioos:station:wmo:42049:1,2014-03-03T22:00:00Z,28.3507,-96.0058,2.0,257.7193965,40.99807313,-99999.0,'11111222,11111222,99999999' 
TABS,ioos:station:wmo:42049:1,2014-03-03T22:30:00Z,28.3507,-96.0058,2.0,254.1191679,46.04741144,-99999.0,'11111222,11111222,99999999' 
TABS,ioos:station:wmo:42049:1,2014-03-03T23:00:00Z,28.3507,-96.0058,2.0,228.2338148,52.14024357,-99999.0,'11111222,11111222,99999999' 
TABS,ioos:station:wmo:42049:1,2014-03-03T23:30:00Z,28.3507,-96.0058,2.0,242.7544742,47.09490949,-99999.0,'11111222,11111222,99999999' 
TABS,ioos:station:wmo:42049:1,2014-03-04T00:00:00Z,28.3507,-96.0058,2.0,237.8010641,69.15571488,-99999.0,'11111222,11111222,99999999' 
TABS,ioos:station:wmo:42049:1,2014-03-04T00:30:00Z,28.3507,-96.0058,2.0,239.972879,64.28798099,-99999.0,'11111222,11111222,99999999' 
TABS,ioos:station:wmo:42049:1,2014-03-04T01:00:00Z,28.3507,-96.0058,2.0,238.5511987,61.83259739,-99999.0,'11111222,11111222,99999999' 
TABS,ioos:station:wmo:42049:1,2014-03-04T01:30:00Z,28.3507,-96.0058,2.0,238.1609531,47.73190652,-99999.0,'11111222,11111222,99999999' 
TABS,ioos:station:wmo:42049:1,2014-03-04T02:00:00Z,28.3507,-96.0058,2.0,239.5455304,40.68278874,-99999.0,'11111222,11111222,99999999' 
TABS,ioos:station:wmo:42049:1,2014-03-04T02:30:00Z,28.3507,-96.0058,2.0,237.2331882,51.79076559,-99999.0,'11111222,11111222,99999999' 
TABS,ioos:station:wmo:42049:1,2014-03-04T03:00:00Z,28.3507,-96.0058,2.0,231.1409904,60.74258885,-99999.0,'11111222,11111222,99999999' 
TABS,ioos:station:wmo:42049:1,2014-03-04T03:30:00Z,28.3507,-96.0058,2.0,239.7248004,60.47820268,-99999.0,'11111222,11111222,99999999' 
TABS,ioos:station:wmo:42049:1,2014-03-04T04:00:00Z,28.3507,-96.0058,2.0,243.0899587,59.48048419,-99999.0,'11111222,11111222,99999999' 
TABS,ioos:station:wmo:42049:1,2014-03-04T04:30:00Z,28.3507,-96.0058,2.0,241.1769135,52.56156485,-99999.0,'11111222,11111222,99999999' 
TABS,ioos:station:wmo:42049:1,2014-03-04T05:00:00Z,28.3507,-96.0058,2.0,243.1591323,53.02225665,-99999.0,'11111222,11111222,99999999' 
TABS,ioos:station:wmo:42049:1,2014-03-04T05:30:00Z,28.3507,-96.0058,2.0,245.5731068,46.26068849,-99999.0,'11111222,11111222,99999999' 
TABS,ioos:station:wmo:42049:1,2014-03-04T06:00:00Z,28.3507,-96.0058,2.0,241.6536706,47.19936122,-99999.0,'11111222,11111222,99999999' 
TABS,ioos:station:wmo:42049:1,2014-03-04T06:30:00Z,28.3507,-96.0058,2.0,241.0045292,43.03381461,-99999.0,'11111222,11111222,99999999' 
TABS,ioos:station:wmo:42049:1,2014-03-04T07:00:00Z,28.3507,-96.0058,2.0,243.0933639,41.30090798,-99999.0,'11111222,11111222,99999999' 
TABS,ioos:station:wmo:42049:1,2014-03-04T07:30:00Z,28.3507,-96.0058,2.0,242.0821543,58.92786268,-99999.0,'11111222,11111222,99999999' 
TABS,ioos:station:wmo:42049:1,2014-03-04T08:00:00Z,28.3507,-96.0058,2.0,240.9511356,54.80383381,-99999.0,'11111222,11111222,99999999' 
TABS,ioos:station:wmo:42049:1,2014-03-04T08:30:00Z,28.3507,-96.0058,2.0,243.5128627,58.92491833,-99999.0,'11111222,11111222,99999999' 
TABS,ioos:station:wmo:42049:1,2014-03-04T09:00:00Z,28.3507,-96.0058,2.0,240.1861816,64.24259646,-99999.0,'11111222,11111222,99999999' 
TABS,ioos:station:wmo:42049:1,2014-03-04T09:30:00Z,28.3507,-96.0058,2.0,238.6734125,52.04743221,-99999.0,'11111222,11111222,99999999' 
TABS,ioos:station:wmo:42049:1,2014-03-04T10:00:00Z,28.3507,-96.0058,2.0,241.1175038,50.6615288,-99999.0,'11111222,11111222,99999999' 
TABS,ioos:station:wmo:42049:1,2014-03-04T10:30:00Z,28.3507,-96.0058,2.0,244.1105664,48.14142187,-99999.0,'11111222,11111222,99999999' 
TABS,ioos:station:wmo:42049:1,2014-03-04T11:00:00Z,28.3507,-96.0058,2.0,250.533533,41.47050036,-99999.0,'11111222,11111222,99999999' 
TABS,ioos:station:wmo:42049:1,2014-03-04T11:30:00Z,28.3507,-96.0058,2.0,243.9410691,49.5800363,-99999.0,'11111222,11111222,99999999' 
TABS,ioos:station:wmo:42049:1,2014-03-04T12:00:00Z,28.3507,-96.0058,2.0,237.6310423,58.68902197,-99999.0,'11111222,11111222,99999999' 
TABS,ioos:station:wmo:42049:1,2014-03-04T12:30:00Z,28.3507,-96.0058,2.0,237.6681912,57.55245694,-99999.0,'11111222,11111222,99999999' 
TABS,ioos:station:wmo:42049:1,2014-03-04T13:00:00Z,28.3507,-96.0058,2.0,234.2531487,55.49466641,-99999.0,'11111222,11111222,99999999' 
TABS,ioos:station:wmo:42049:1,2014-03-04T13:30:00Z,28.3507,-96.0058,2.0,232.4239675,54.06610213,-99999.0,'11111222,11111222,99999999' 
TABS,ioos:station:wmo:42049:1,2014-03-04T14:00:00Z,28.3507,-96.0058,2.0,231.8566988,60.94304308,-99999.0,'11111222,11111222,99999999' 
TABS,ioos:station:wmo:42049:1,2014-03-04T14:30:00Z,28.3507,-96.0058,2.0,233.7510299,65.11182765,-99999.0,'11111222,11111222,99999999' 
TABS,ioos:station:wmo:42049:1,2014-03-04T15:00:00Z,28.3507,-96.0058,2.0,237.1238364,66.35716465,-99999.0,'11111222,11111222,99999999' 
TABS,ioos:station:wmo:42049:1,2014-03-04T15:30:00Z,28.3507,-96.0058,2.0,241.0217332,55.87521186,-99999.0,'11111222,11111222,99999999' 
TABS,ioos:station:wmo:42049:1,2014-03-04T16:00:00Z,28.3507,-96.0058,2.0,247.1531829,52.1296384,-99999.0,'11111222,11111222,99999999' 